Location: Whitehorse
(60.7170°N, 135.0500°W)
Time: 09:39:18
(UTC-08:00)

SL-16 R/B - Visible Passes

Search period start: 31 January 2015 00:00
Search period end: 10 February 2015 00:00
Orbit: 843 x 847 km, 71.0° (Epoch: 30 January)

Date Brightness Start Highest point End Pass type
(mag) Time Alt. Az. Time Alt. Az. Time Alt. Az.
31 Jan 4.4 03:20:55 21° NNE 03:20:55 21° NNE 03:23:02 10° NE visible
31 Jan 3.5 05:02:47 29° N 05:03:19 30° N 05:08:16 10° ENE visible
31 Jan 3.1 06:44:40 17° NW 06:48:45 43° NNE 06:54:10 10° E visible
31 Jan 2.3 08:27:40 10° NW 08:33:22 78° SW 08:39:02 10° SSE visible
01 Feb 4.5 03:07:10 20° NNE 03:07:10 20° NNE 03:09:02 10° NE visible
01 Feb 3.6 04:49:03 29° N 04:49:18 30° N 04:54:16 10° ENE visible
01 Feb 3.1 06:30:55 18° NW 06:34:46 43° NNE 06:40:10 10° E visible
01 Feb 2.2 08:13:41 10° NW 08:19:23 79° SW 08:25:04 10° SSE visible
02 Feb 4.6 02:53:26 18° NE 02:53:26 18° NE 02:55:03 10° NE visible
02 Feb 3.6 04:35:18 30° N 04:35:18 30° N 04:40:15 10° ENE visible
02 Feb 3.2 06:17:11 20° NNW 06:20:46 42° NNE 06:26:10 10° E visible
02 Feb 2.2 07:59:42 10° NW 08:05:25 81° SW 08:11:06 10° SSE visible
03 Feb 4.7 02:39:41 17° NE 02:39:41 17° NE 02:41:04 10° NE visible
03 Feb 3.7 04:21:34 29° N 04:21:34 29° N 04:26:15 10° ENE visible
03 Feb 3.2 06:03:27 21° NNW 06:06:46 42° NNE 06:12:10 10° E visible
03 Feb 2.2 07:45:44 10° NW 07:51:26 82° SW 07:57:08 10° SE visible
04 Feb 4.7 02:25:57 16° NE 02:25:57 16° NE 02:27:05 10° NE visible
04 Feb 3.8 04:07:50 29° NNE 04:07:50 29° NNE 04:12:15 10° ENE visible
04 Feb 3.2 05:49:43 23° NNW 05:52:47 41° NNE 05:58:10 10° E visible
04 Feb 2.2 07:31:45 10° NW 07:37:27 83° SW 07:43:09 10° SE visible
05 Feb 4.8 02:12:14 14° NE 02:12:14 14° NE 02:13:06 10° NE visible
05 Feb 3.9 03:54:07 28° NNE 03:54:07 28° NNE 03:58:15 10° ENE visible
05 Feb 3.2 05:35:59 25° NNW 05:38:47 41° NNE 05:44:09 10° E visible
05 Feb 2.2 07:17:52 10° NW 07:23:29 85° SW 07:29:11 10° SE visible
06 Feb 4.9 01:58:31 13° NE 01:58:31 13° NE 01:59:07 10° NE visible
06 Feb 3.9 03:40:23 28° NNE 03:40:23 28° NNE 03:44:15 10° ENE visible
06 Feb 3.3 05:22:16 27° NNW 05:24:47 40° NNE 05:30:09 10° E visible
06 Feb 2.2 07:04:08 12° NW 07:09:30 86° SW 07:15:12 10° SE visible
07 Feb 5.0 01:44:48 12° NE 01:44:48 12° NE 01:45:08 10° NE visible
07 Feb 4.0 03:26:41 26° NNE 03:26:41 26° NNE 03:30:14 10° ENE visible
07 Feb 3.3 05:08:33 28° NNW 05:10:47 40° NNE 05:16:09 10° E visible
07 Feb 2.2 06:50:26 13° NW 06:55:32 88° SW 07:01:14 10° SE visible
08 Feb 5.0 01:31:06 10° NE 01:31:06 10° NE 01:31:08 10° NE visible
08 Feb 4.1 03:12:59 25° NNE 03:12:59 25° NNE 03:16:14 10° ENE visible
08 Feb 3.3 04:54:51 30° NNW 04:56:48 40° NNE 05:02:08 10° E visible
08 Feb 2.2 06:36:45 15° NW 06:41:33 89° WSW 06:47:15 10° SE visible
09 Feb 4.2 02:59:18 24° NNE 02:59:18 24° NNE 03:02:14 10° ENE visible
09 Feb 3.3 04:41:11 32° N 04:42:48 39° NNE 04:48:08 10° E visible
09 Feb 2.2 06:23:04 17° NW 06:27:34 90° NNE 06:33:17 10° SE visible
09 Feb 3.2 08:06:26 10° NW 08:11:12 28° WSW 08:15:53 10° SSW visible
